Showing default

AISAT, 40054

Orbit data source: Space-Track

AISAT, 40054 is a payload satellite owned by DLR (DE) in SSO that was launched on Mon, 30 Jun 2014 UTC via a PSLV launch vehicle from the Sirharikota (SRI). Payload-class satellites include a variety of spacecraft equipped with specific instruments for various scientific and technological missions. These include communications satellites like Starlink; space stations such as the ISS; scientific satellites like the Hubble; Earth observation satellites from companies like Planet Labs, Umbra, and HawkEye 360; GPS; miniature CubeSats for education and research; and military/defense satellites.

Loading next visibility...
Identifier
40054, 2014-034B
Orbit
SSO
Country
Flag of DEDE / GER
Related business
Manufacturer
DLR-ISS
Mission
Non-operational Civil Communications
Bus & Motor
CLAVIS, Unknown motor
Mass
10 kg wet, 10 kg dry
Launch date (UTC)
2014-06-30 (12 years ago)
Launch vehicle
PSLV
Launch site
Sirharikota (SRI)
Object type
Payload
Rocket body
Debris
Shape & HBR
Box + 1 Truss, 2.0 m
Radar Cross Section
0.040 m², Medium (>0.1 m² and < 1m²)

Expand to show TLE details & history
Last TLE update: 2 days ago

TLE from 2 days ago
0 AISAT
1 40054U 14034B   26171.28043580  .00007888  00000-0  50465-3 0  9996
2 40054  98.2385  83.9127 0008272 200.1433 159.9469 15.08877124647678
Epoch: 2026-06-20T06:43Z
TLE epoch observation values (Epoch: 2026-06-20T06:43:49.653Z)
Latitude
0.00006°
Longitude
74.45848°
Altitude
548.057 km
Speed
7.585 km/s
True Right ascension
05h 35m 39s
True Declination
0° 00' 00"
Sunlit
Object was in daylight at epoch
Visualization orbit readout
Latitude
Unknown
Longitude
Unknown
Altitude
Unknown
Speed
Unknown
Apparent Right ascension
Unknown
Apparent Declination
Unknown
Sunlit
N/A
Visualization observer readout
Local Sidereal Time
21:49:31
Azimuth
Unknown
Elevation
Unknown
Doppler factor
Unknown
Orbital elements
Apogee altitude
542.368 km
Perigee altitude
530.928 km
Semi-major axis
6,914.785 km
Eccentricity
0.00083
Inclination
98.2385°
RAAN
83.9127°
Arg. of periapsis
200.1433°
True anomaly
159.97937°
Mean anomaly
159.9469°
Eccentric anomaly
159.96314°
Mean motion
3.77464 °/min
Orbital period
95.37 mins
BSTAR
0.00050465
Loading maneuver chart data...
Computing Atmospheric mass density...
Loading historical data...
Loading historical data...
Loading historical data...
Loading historical data...
Loading historical data...
Loading historical data...
Loading historical data...
Other satellites on launch #34 in the year 2014 (2014-06-30 UTC)

Documentation

Showing up to 5 results
|